Find Kosmos-2394

NORAD ID: 27617 Int'l Des: 2002-060 Owner: KVR/IACG Country: RU Constellation: GLONASS operational
MEOCIRCULAR

Live Position

Loading 3D Globe...

About Kosmos-2394

Description loading...

Upcoming Passes

Passes for default location (London). Set your location on the main map for personalized predictions.

Altitude History

Loading altitude history...

Two-Line Element Set

1 27617U 02060A 26103.83656666 -.00000002 00000-0 00000+0 0 9991
2 27617 65.4636 317.8345 0001692 16.1478 343.9110 2.13102476181356
Epoch: Apr 13, 2026 • Age: 88 hours

Current Status

Altitude 19145.9 km
Velocity 3.95 km/s
Sub-Earth Point -48.11°S, 105.38°W
Launch Date Dec 25, 2002
Age 23.3 years
Type other

Technical Details

Classification Payload
Mass 1450.00 kg
Dry Mass 1200.00 kg
Total Mass 1450.00 kg
Length 4.00 m
Diameter 1.50 m
Span 7.80 m
Shape Cyl + Ant + 2 Pan
Manufacturer POL
Bus Type Uragan
Phase Status In Orbit
Owner/State KVR/IACG/RU

Most Searched